User: anonymous   Login
Location: Sperry Observatory
(40.6664°N, 74.3236°W)
Time: 08:07:09
(UTC-04:00)
Language:

FO-29 - Orbit

View from above orbital plane
View from above orbital plane
View from above satellite
View from above satellite

Ground track
Ground track

The orbit data is extracted from the following two-line orbital elements,

1 24278U 96046B   17234.93663241 -.00000015 +00000-0 +18846-4 0  9997
2 24278 098.5531 109.2858 0350637 164.2845 196.9516 13.53077746037654
Epoch (UTC): 22 August 2017 22:28:45
Eccentricity: 0.0350637
inclination: 98.5531°
perigee height: 800 km
apogee height: 1322 km
right ascension of ascending node: 109.2858°
argument of perigee: 164.2845°
revolutions per day: 13.53077746
mean anomaly at epoch: 196.9516°
orbit number at epoch: 3765

The dashed part of the orbit path shows where the satellite is in the earth's shadow,  

DLR